Regional Weather Roundup
Issued by NWS

Home | Current Version | Previous Version | Text Only | Print | Product List | Glossary On
Versions: 1 2 3 4 5 6 7 8 9 10 11 12 13 14 15 16 17 18 19 20 21 22 23 24 25 26 27 28 29 30 31 32 33 34 35 36 37 38 39 40 41 42 43 44 45 46 47 48 49 50
000
ASUS44 KOUN 271310
RWROK

WEATHER ROUNDUP FOR OKLAHOMA
NATIONAL WEATHER SERVICE NORMAN OK
800 AM CDT MON MAR 27 2017

NOTE: "FAIR" INDICATES FEW OR NO CLOUDS BELOW 12,000 FEET WITH NO
      SIGNIFICANT WEATHER AND/OR OBSTRUCTIONS TO VISIBILITY.

OKZ001>007-009>012-014-015-017-271400-
NORTHWEST OKLAHOMA AND THE PANHANDLE

CITY           SKY/WX    TMP DP  RH WIND       PRES   REMARKS
GAGE           CLOUDY    47  42  83 N10       29.96R
GUYMON         CLEAR     36  34  92 NW6       29.97R WCI  31
ENID/WOODRING  CLOUDY    50  48  93 MISG      29.91R
$$

OKZ016-021>023-033>039-044-045-271400-
SOUTHWEST OKLAHOMA

CITY           SKY/WX    TMP DP  RH WIND       PRES   REMARKS
LAWTON/REGL    MOCLDY    53  48  83 N10G21    29.92R
LAWTON/FT SILL CLOUDY    53  48  84 N14G20    29.91R
FREDERICK      CLEAR     49  44  83 N7        29.91R
CLINTON        PTCLDY    46  42  86 N10       29.95R
HOBART         CLOUDY    47  43  86 N8        29.94R
ALTUS AFB      CLEAR     46  41  83 N12       29.93R
$$

OKZ018>020-024>031-271400-
CENTRAL OKLAHOMA

CITY           SKY/WX    TMP DP  RH WIND       PRES   REMARKS
OKLAHOMA CITY  CLOUDY    52  47  83 N21       29.90R
OKC/WILEY POST CLOUDY    53  48  83 N12       29.90R
OKC/TINKER AFB CLOUDY    52  47  84 N20       29.88R
STILLWATER     CLOUDY    52  47  83 NW13      29.90R
GUTHRIE        CLOUDY    52  47  83 N8G17     29.91R
$$

OKZ008-013-054>072-271400-
NORTHEAST OKLAHOMA

CITY           SKY/WX    TMP DP  RH WIND       PRES   REMARKS
TULSA          CLOUDY    55  52  89 NW14      29.83R
TULSA/JONES    CLOUDY    55  51  86 NW10      29.85R
PONCA CITY     CLOUDY    51  46  83 NW6       29.91R
BARTLESVILLE   CLOUDY    52  50  93 VRB5      29.87R
MUSKOGEE       CLOUDY    59  58  96 W13       29.81R
$$

OKZ032-040>043-046>053-073>077-271400-
SOUTH CENTRAL/SOUTHEAST OKLAHOMA

CITY           SKY/WX    TMP DP  RH WIND       PRES   REMARKS
ARDMORE/DWNTWN CLOUDY    54  48  82 N3        29.89R
MCALESTER      CLOUDY    58  53  84 W10       29.84R
$$





USA.gov is the U.S. government's official web portal to all federal, state and local government web resources and services.